• In Hungary
  • List of Countries
  • For 7 days
  • Water Temperature
  • Satellite Maps
  • Weather Map
  • News
  • Weather Widgets
  • user-avatar
    Login

    Hourly Weather Librantowa

    Today, 24 November, Friday

    Time Temperature Precipitation Wind Pressure Humidity
    00:00 +2°C° 0 mm 2 mps 725 mmHg 86%
    01:00 +2°C° 0 mm 2 mps 725 mmHg 85%
    02:00 +2°C° 0 mm 2 mps 725 mmHg 85%
    03:00 +2°C° 0 mm 2 mps 725 mmHg 85%
    04:00 +2°C° 0 mm 2 mps 725 mmHg 84%
    05:00 +2°C° 0 mm 2 mps 725 mmHg 84%
    06:00 +2°C° 0 mm 2 mps 725 mmHg 84%
    07:00 +3°C° 0 mm 1 mps 725 mmHg 83%
    08:00 +3°C° 0 mm 2 mps 725 mmHg 79%
    09:00 +5°C° 0 mm 2 mps 726 mmHg 75%
    10:00 +7°C° 0 mm 2 mps 726 mmHg 71%
    11:00 +8°C° 0 mm 2 mps 726 mmHg 71%
    12:00 +9°C° 0 mm 2 mps 726 mmHg 70%
    13:00 +10°C° 0 mm 2 mps 725 mmHg 69%
    14:00 +8°C° 0 mm 2 mps 725 mmHg 74%
    15:00 +7°C° 0 mm 2 mps 725 mmHg 80%
    16:00 +6°C° 0 mm 2 mps 725 mmHg 86%
    17:00 +6°C° 0 mm 2 mps 725 mmHg 87%
    18:00 +5°C° 0 mm 3 mps 725 mmHg 87%
    19:00 +4°C° 0 mm 3 mps 725 mmHg 88%
    20:00 +4°C° 0 mm 3 mps 725 mmHg 88%
    21:00 +4°C° 0 mm 3 mps 726 mmHg 87%
    22:00 +4°C° 0 mm 3 mps 726 mmHg 87%
    23:00 +4°C° 0 mm 3 mps 726 mmHg 87%

    Tomorrow, 25 November, Saturday

    Time Temperature Precipitation Wind Pressure Humidity
    00:00 +5°C° 0 mm 3 mps 726 mmHg 87%
    01:00 +5°C° 0 mm 3 mps 726 mmHg 86%
    02:00 +5°C° 0 mm 3 mps 725 mmHg 88%
    03:00 +4°C° 0 mm 3 mps 725 mmHg 89%
    04:00 +4°C° 0 mm 3 mps 725 mmHg 90%
    05:00 +4°C° 0 mm 3 mps 725 mmHg 90%
    06:00 +4°C° 0 mm 3 mps 724 mmHg 90%
    07:00 +4°C° 0 mm 3 mps 724 mmHg 90%
    08:00 +5°C° 0 mm 4 mps 723 mmHg 86%
    09:00 +6°C° 0 mm 4 mps 723 mmHg 81%
    10:00 +7°C° 0 mm 5 mps 723 mmHg 77%
    11:00 +7°C° 0 mm 5 mps 722 mmHg 76%
    12:00 +8°C° 0 mm 6 mps 721 mmHg 74%
    13:00 +8°C° 0 mm 6 mps 721 mmHg 72%
    14:00 +7°C° 0 mm 6 mps 720 mmHg 74%
    15:00 +7°C° 0 mm 6 mps 720 mmHg 76%
    16:00 +6°C° 0 mm 5 mps 720 mmHg 79%
    17:00 +6°C° 0.1 mm 5 mps 720 mmHg 79%
    18:00 +6°C° 0.1 mm 5 mps 720 mmHg 80%
    19:00 +7°C° 0.1 mm 5 mps 719 mmHg 81%
    20:00 +7°C° 0.1 mm 4 mps 719 mmHg 82%
    21:00 +6°C° 0.1 mm 4 mps 720 mmHg 83%
    22:00 +6°C° 0.1 mm 4 mps 720 mmHg 83%
    23:00 +7°C° 0 mm 3 mps 720 mmHg 85%

    Day after tomorrow, 26 November, Sunday

    Time Temperature Precipitation Wind Pressure Humidity
    00:00 +7°C° 0 mm 3 mps 720 mmHg 87%
    01:00 +6°C° 0 mm 2 mps 720 mmHg 88%
    02:00 +6°C° 0.2 mm 2 mps 721 mmHg 89%
    03:00 +6°C° 0.2 mm 2 mps 721 mmHg 90%
    04:00 +6°C° 0.2 mm 2 mps 721 mmHg 90%
    05:00 +5°C° 1.1 mm 2 mps 722 mmHg 90%
    06:00 +4°C° 1.1 mm 3 mps 722 mmHg 89%
    07:00 +3°C° 1.1 mm 3 mps 723 mmHg 88%
    08:00 +3°C° 0.6 mm 3 mps 723 mmHg 87%
    09:00 +3°C° 0.6 mm 3 mps 724 mmHg 86%
    10:00 +3°C° 0.6 mm 3 mps 724 mmHg 85%
    11:00 +2°C° 0.5 mm 3 mps 724 mmHg 85%
    12:00 +1°C° 0.5 mm 4 mps 725 mmHg 84%
    13:00 +1°C° 0.5 mm 4 mps 725 mmHg 84%
    14:00 +2°C° 0.4 mm 3 mps 725 mmHg 84%
    15:00 +2°C° 0.4 mm 3 mps 725 mmHg 84%
    16:00 +1°C° 0.4 mm 3 mps 725 mmHg 85%
    17:00 +1°C° 0.2 mm 3 mps 726 mmHg 85%
    18:00 +1°C° 0.2 mm 3 mps 726 mmHg 86%
    19:00 +1°C° 0.2 mm 3 mps 726 mmHg 86%
    20:00 +1°C° 0.1 mm 3 mps 727 mmHg 87%
    21:00 0°C° 0.1 mm 3 mps 727 mmHg 87%
    22:00 0°C° 0.1 mm 3 mps 727 mmHg 88%
    23:00 0°C° 0 mm 3 mps 727 mmHg 88%

    27 November, Monday

    Time Temperature Precipitation Wind Pressure Humidity
    00:00 -1°C° 0 mm 3 mps 728 mmHg 89%
    01:00 -2°C° 0 mm 3 mps 728 mmHg 90%
    02:00 -2°C° 0 mm 3 mps 728 mmHg 90%
    03:00 -2°C° 0 mm 3 mps 728 mmHg 90%
    04:00 -2°C° 0 mm 3 mps 728 mmHg 89%
    05:00 -2°C° 0 mm 3 mps 728 mmHg 90%
    06:00 -2°C° 0 mm 3 mps 728 mmHg 90%
    07:00 -3°C° 0 mm 2 mps 729 mmHg 90%
    08:00 -2°C° 0 mm 3 mps 729 mmHg 86%
    09:00 -1°C° 0 mm 3 mps 729 mmHg 81%
    10:00 0°C° 0 mm 3 mps 729 mmHg 76%
    11:00 0°C° 0 mm 3 mps 729 mmHg 74%
    12:00 +1°C° 0 mm 3 mps 729 mmHg 73%
    13:00 +1°C° 0 mm 3 mps 729 mmHg 71%
    14:00 +1°C° 0 mm 3 mps 729 mmHg 75%
    15:00 +1°C° 0 mm 2 mps 729 mmHg 80%
    16:00 -1°C° 0 mm 2 mps 729 mmHg 85%
    17:00 -1°C° 0 mm 2 mps 729 mmHg 86%
    18:00 -1°C° 0 mm 2 mps 729 mmHg 87%
    19:00 0°C° 0 mm 1 mps 729 mmHg 88%
    20:00 0°C° 0 mm 1 mps 729 mmHg 88%
    21:00 0°C° 0 mm 1 mps 729 mmHg 88%
    22:00 0°C° 0 mm 1 mps 729 mmHg 88%
    23:00 0°C° 0 mm 1 mps 729 mmHg 88%

    28 November, Tuesday

    Time Temperature Precipitation Wind Pressure Humidity
    00:00 -1°C° 0 mm 1 mps 728 mmHg 89%
    01:00 -1°C° 0 mm 1 mps 728 mmHg 89%
    02:00 -1°C° 0 mm 1 mps 728 mmHg 89%
    03:00 -1°C° 0 mm 1 mps 727 mmHg 89%
    04:00 -1°C° 0 mm 1 mps 727 mmHg 89%
    05:00 -1°C° 0 mm 1 mps 727 mmHg 89%
    06:00 -1°C° 0 mm 1 mps 727 mmHg 88%
    07:00 -2°C° 0 mm 1 mps 726 mmHg 88%
    08:00 0°C° 0 mm 1 mps 726 mmHg 82%
    09:00 +1°C° 0 mm 1 mps 726 mmHg 76%
    10:00 +1°C° 0 mm 2 mps 726 mmHg 71%
    11:00 +3°C° 0 mm 1 mps 725 mmHg 68%
    12:00 +4°C° 0 mm 1 mps 725 mmHg 65%
    13:00 +5°C° 0 mm 1 mps 724 mmHg 62%
    14:00 +3°C° 0 mm 1 mps 724 mmHg 68%
    15:00 +2°C° 0 mm 1 mps 723 mmHg 74%
    16:00 -1°C° 0 mm 2 mps 723 mmHg 80%
    17:00 -2°C° 0 mm 2 mps 723 mmHg 81%
    18:00 -2°C° 0 mm 2 mps 723 mmHg 82%
    19:00 -3°C° 0 mm 2 mps 722 mmHg 83%
    20:00 -3°C° 0 mm 2 mps 722 mmHg 82%
    21:00 -3°C° 0 mm 2 mps 722 mmHg 80%
    22:00 -3°C° 0 mm 2 mps 722 mmHg 79%
    23:00 -3°C° 0 mm 2 mps 721 mmHg 78%

    29 November, Wednesday

    Time Temperature Precipitation Wind Pressure Humidity
    00:00 -3°C° 0 mm 2 mps 721 mmHg 77%
    01:00 -3°C° 0 mm 2 mps 721 mmHg 76%
    02:00 -3°C° 0 mm 2 mps 720 mmHg 75%
    03:00 -3°C° 0 mm 2 mps 720 mmHg 74%
    04:00 -3°C° 0 mm 2 mps 720 mmHg 73%
    05:00 -2°C° 0 mm 2 mps 720 mmHg 72%
    06:00 -2°C° 0 mm 2 mps 719 mmHg 72%
    07:00 -2°C° 0 mm 3 mps 719 mmHg 72%
    08:00 -1°C° 0 mm 3 mps 719 mmHg 68%
    09:00 -1°C° 0 mm 3 mps 719 mmHg 64%
    10:00 0°C° 0 mm 3 mps 719 mmHg 60%
    11:00 +1°C° 0 mm 3 mps 719 mmHg 60%
    12:00 0°C° 0 mm 4 mps 719 mmHg 60%
    13:00 +1°C° 0 mm 4 mps 718 mmHg 59%
    14:00 +1°C° 0 mm 3 mps 718 mmHg 65%
    15:00 0°C° 0 mm 3 mps 718 mmHg 71%
    16:00 -1°C° 0 mm 3 mps 718 mmHg 76%
    17:00 -2°C° 0 mm 3 mps 718 mmHg 79%
    18:00 -2°C° 0 mm 3 mps 718 mmHg 82%
    19:00 -4°C° 0 mm 3 mps 719 mmHg 85%
    20:00 -4°C° 0 mm 3 mps 719 mmHg 85%
    21:00 -3°C° 0 mm 2 mps 719 mmHg 85%
    22:00 -2°C° 0 mm 2 mps 719 mmHg 85%
    23:00 -2°C° 0.1 mm 2 mps 719 mmHg 85%
    Show more